This demonstration page uses our WeatherBlox Daily Observations layout. Learn more.

Left ArrowRight Arrow

40.92945, -100.16068

Hourly Observations for May 10, 2015

Temp ( °F °C ) Dew Point ( °F °C ) Humidity (%) Winds ( mph kmh ) Pressure ( in mb ) Visibility ( mi km ) Precip ( " mm )
12:15 am 00:15 Cloudy 61 16 60 15.3 96 96 ESE 13 20 29.71 1006 10 16.0934 N/A
12:35 am 00:35 Cloudy 61 16 59 15.1 94 94 ESE 12 19 29.68 1005 10 16.0934 N/A
12:55 am 00:55 Cloudy 61 16 59 15.1 94 94 SE 14 22 29.71 1006 10 16.0934 N/A
1:15 am 01:15 Cloudy 61 16.1 60 15.3 95 95 SE 15 24 29.68 1005 10 16.0934 N/A
1:35 am 01:35 Partly Cloudy with Nearby Thunderstorms 61 16.3 60 15.5 95 95 SE 15 24 29.68 1005 10 16.0934 N/A
1:55 am 01:55 Partly Cloudy 61 16.3 60 15.3 94 94 SE 12 19 29.68 1005 10 16.0934 N/A
2:15 am 02:15 Mostly Cloudy 57 13.8 53 11.6 87 87 NW 17 28 29.68 1005 10 16.0934 N/A
2:35 am 02:35 Cloudy 49 9.6 47 8.6 94 94 N 12 19 29.74 1007 10 16.0934 N/A
2:55 am 02:55 Cloudy 50 10.1 48 9 93 93 NNW 10 17 29.74 1007 10 16.0934 N/A
3:15 am 03:15 Cloudy 49 9.2 47 8.2 94 94 N 8 13 29.74 1007 10 16.0934 N/A
3:35 am 03:35 Partly Cloudy 48 8.9 46 8 94 94 N 9 15 29.71 1006 10 16.0934 N/A
3:55 am 03:55 Partly Cloudy 47 8.2 45 7.4 95 95 N 8 13 29.71 1006 10 16.0934 N/A
4:15 am 04:15 Mostly Cloudy 47 8.1 45 7.3 95 95 N 5 7 29.71 1006 10 16.0934 N/A
4:35 am 04:35 Cloudy 47 8.2 46 7.5 95 95 NNW 5 7 29.71 1006 10 16.0934 N/A
4:55 am 04:55 Cloudy 47 8.3 46 7.5 95 95 N 5 7 29.71 1006 10 16.0934 N/A
5:15 am 05:15 Cloudy 47 8.5 46 7.6 94 94 N 6 9 29.71 1006 10 16.0934 N/A
5:35 am 05:35 Cloudy 47 8.5 46 7.7 95 95 N N/A 29.71 1006 10 16.0934 N/A
5:55 am 05:55 Cloudy 48 8.7 46 8 95 95 N 3 6 29.71 1006 7 11.26538 N/A
6:15 am 06:15 Cloudy 47 8.5 46 7.6 94 94 NW 5 7 29.71 1006 7 11.26538 N/A
6:35 am 06:35 Cloudy with Mist and Fog 47 8.5 46 7.7 95 95 WNW 7 11 29.71 1006 5 8.0467 N/A
6:55 am 06:55 Mostly Cloudy with Mist and Fog 47 8.3 46 7.6 95 95 WNW 5 7 29.71 1006 5 8.0467 N/A
7:15 am 07:15 Cloudy with Mist and Fog 47 8.2 46 7.5 95 95 W 5 7 29.71 1006 5 8.0467 N/A
7:35 am 07:35 Cloudy 47 8.5 46 7.7 95 95 W 5 7 29.71 1006 7 11.26538 N/A
7:55 am 07:55 Cloudy 47 8.5 46 7.8 95 95 WSW 5 7 29.74 1007 7 11.26538 N/A
8:15 am 08:15 Cloudy 48 8.8 46 8 95 95 W 5 7 29.74 1007 7 11.26538 N/A
8:35 am 08:35 Cloudy 48 9 47 8.2 95 95 SW 6 9 29.74 1007 7 11.26538 N/A
8:55 am 08:55 Cloudy with Mist and Fog 48 8.8 46 7.9 94 94 SW 15 24 29.77 1008 4 6.43736 N/A
9:15 am 09:15 Cloudy with Mist and Fog 47 8.6 46 7.8 95 95 SW 12 19 29.77 1008 5 8.0467 N/A
9:35 am 09:35 Cloudy 48 9 46 8 94 94 SW 13 20 29.77 1008 10 16.0934 N/A
9:55 am 09:55 Cloudy 49 9.3 47 8.2 93 93 WSW 12 19 29.77 1008 10 16.0934 N/A
10:15 am 10:15 Cloudy 49 9.2 46 7.8 91 91 W 14 22 29.77 1008 10 16.0934 N/A
10:35 am 10:35 Cloudy 47 8.1 45 7 93 93 W 16 26 29.74 1007 10 16.0934 N/A
10:55 am 10:55 Cloudy 46 8 44 6.5 90 90 W 18 30 29.74 1007 10 16.0934 N/A
11:15 am 11:15 Cloudy 47 8.6 44 6.7 88 88 W 20 31 29.74 1007 10 16.0934 N/A
11:35 am 11:35 Cloudy 47 8.5 44 6.6 88 88 WNW 18 30 29.74 1007 10 16.0934 N/A
11:55 am 11:55 Cloudy 49 9.2 44 6.7 85 85 WNW 21 33 29.77 1008 10 16.0934 N/A
12:15 pm 12:15 Cloudy 48 8.9 43 6.1 83 83 WNW 18 30 29.77 1008 10 16.0934 N/A
12:35 pm 12:35 Cloudy 48 8.9 43 6.1 83 83 WNW 20 31 29.77 1008 10 16.0934 N/A
12:55 pm 12:55 Cloudy 48 8.7 42 5.6 81 81 W 15 24 29.8 1009 10 16.0934 N/A
1:15 pm 13:15 Cloudy 47 8.6 42 5.5 81 81 WNW 13 20 29.8 1009 10 16.0934 N/A
1:35 pm 13:35 Cloudy 47 8.3 41 5.2 81 81 WNW 14 22 29.85 1011 10 16.0934 N/A
1:55 pm 13:55 Cloudy 47 8.3 41 5.1 80 80 WNW 14 22 29.85 1011 10 16.0934 N/A
2:15 pm 14:15 Cloudy 47 8.6 41 5.1 79 79 WNW 15 24 29.83 1010 10 16.0934 N/A
2:35 pm 14:35 Cloudy 48 9 41 5 76 76 W 15 24 29.83 1010 10 16.0934 N/A
2:55 pm 14:55 Cloudy 48 9 40 4.6 74 74 WNW 16 26 29.83 1010 10 16.0934 N/A
3:15 pm 15:15 Cloudy 49 9.2 41 4.8 74 74 W 18 30 29.83 1010 10 16.0934 N/A
3:35 pm 15:35 Cloudy 48 9.1 40 4.3 72 72 W 20 31 29.83 1010 10 16.0934 N/A
3:55 pm 15:55 Cloudy 48 9 39 4.1 72 72 W 22 35 29.83 1010 10 16.0934 N/A
4:15 pm 16:15 Cloudy with Nearby Thunderstorms 48 8.8 39 3.8 71 71 W 21 33 29.83 1010 10 16.0934 N/A
4:35 pm 16:35 Cloudy 47 8.4 38 3.5 72 72 W 23 37 29.88 1012 10 16.0934 N/A
4:55 pm 16:55 Cloudy 47 8.6 38 3.3 70 70 WNW 25 41 29.85 1011 10 16.0934 N/A
5:15 pm 17:15 Cloudy 46 8 37 2.9 70 70 WNW 25 41 29.88 1012 10 16.0934 N/A
5:35 pm 17:35 Cloudy 46 7.8 37 2.6 70 70 WNW 26 43 29.91 1013 10 16.0934 N/A
5:55 pm 17:55 Cloudy 45 7.3 37 2.5 72 72 NW 21 33 29.91 1013 10 16.0934 N/A
6:15 pm 18:15 Cloudy 46 7.5 37 2.5 71 71 WNW 21 33 29.91 1013 10 16.0934 N/A
6:35 pm 18:35 Cloudy 46 7.5 37 2.6 71 71 NW 20 31 29.91 1013 10 16.0934 N/A
6:55 pm 18:55 Cloudy 45 7.2 37 2.5 72 72 NW 16 26 29.94 1014 10 16.0934 N/A
7:15 pm 19:15 Cloudy 45 7.3 37 2.5 72 72 NW 18 30 29.94 1014 10 16.0934 N/A
7:35 pm 19:35 Cloudy 45 7.3 36 2.1 70 70 WNW 23 37 29.94 1014 10 16.0934 N/A
7:55 pm 19:55 Mostly Cloudy 44 6.8 35 1.6 70 70 NW 26 43 29.94 1014 10 16.0934 N/A
8:15 pm 20:15 Mostly Cloudy 44 6.5 35 1.4 70 70 NW 24 39 29.94 1014 10 16.0934 N/A
8:35 pm 20:35 Cloudy 43 6.2 35 1.6 73 73 NW 25 41 30 1016 10 16.0934 N/A
8:55 pm 20:55 Partly Cloudy 41 5.2 33 0.7 73 73 NW 22 35 30 1016 10 16.0934 N/A
9:15 pm 21:15 Clear 40 4.7 33 0.7 76 76 WNW 20 31 30.03 1017 10 16.0934 N/A
9:35 pm 21:35 Clear 40 4.5 33 0.3 74 74 NW 22 35 30.03 1017 10 16.0934 N/A
9:55 pm 21:55 Clear 40 4.2 33 0.3 76 76 WNW 18 30 30.03 1017 10 16.0934 N/A
10:15 pm 22:15 Clear 39 4.1 32 undefined 75 75 NW 22 35 30.03 1017 10 16.0934 N/A
10:35 pm 22:35 Clear 39 3.8 32 0.1 77 77 WNW 22 35 30.06 1018 10 16.0934 N/A
10:55 pm 22:55 Clear 38 3.6 32 undefined 78 78 WNW 23 37 30.06 1018 10 16.0934 N/A
11:15 pm 23:15 Clear 38 3.3 32 undefined 79 79 WNW 22 35 30.09 1019 10 16.0934 N/A
11:35 pm 23:35 Partly Cloudy 38 3.2 32 undefined 80 80 WNW 24 39 30.09 1019 10 16.0934 N/A
11:55 pm 23:55 Partly Cloudy 38 3.5 32 undefined 78 78 WNW 20 31 30.06 1018 10 16.0934 N/A

Powered by AerisWeather